Location: Kott?ru
(16.6209°N, 80.6208°E)
Time: 20:12:44
(UTC+00:00)

Hubble Space Telescope - Visible Passes

Search period start: 29 November 2020 00:00
Search period end: 09 December 2020 00:00
Orbit: 536 x 540 km, 28.5° (Epoch: 29 November)

Date Brightness Start Highest point End Pass type
(mag) Time Alt. Az. Time Alt. Az. Time Alt. Az.
29 Nov 2.6 13:58:56 10° W 14:01:19 26° NW 14:01:19 26° NW visible
30 Nov 2.4 13:48:26 10° WNW 13:51:14 25° NW 13:51:14 25° NW visible
01 Dec 2.4 13:37:59 10° WNW 13:41:06 23° NNW 13:41:06 23° NNW visible
02 Dec 2.5 13:27:32 10° WNW 13:30:37 20° NNW 13:30:58 20° N visible
03 Dec 2.6 13:17:06 10° NW 13:19:58 18° N 13:20:49 17° N visible
04 Dec 2.7 13:06:39 10° NW 13:09:20 17° N 13:10:39 15° NNE visible
05 Dec 2.8 12:56:10 10° NW 12:58:42 16° N 13:00:31 12° NNE visible
06 Dec 2.8 12:45:38 10° NW 12:48:05 15° N 12:50:24 10° NNE visible
07 Dec 2.8 12:35:01 10° NW 12:37:27 15° N 12:39:54 10° NE visible
08 Dec 2.7 12:24:19 10° NW 12:26:50 16° N 12:29:21 10° NE visible
08 Dec 3.4 14:05:07 10° NW 14:05:39 13° NW 14:05:39 13° NW visible
